Location: R�serve Fauniques des Laurentides
(47.3100°N, 71.1900°W)
Time: 22:18:29
(UTC-04:00)

Cosmos 1674 - Visible Passes

Search period start: 23 July 2014 00:00
Search period end: 02 August 2014 00:00
Orbit: 516 x 543 km, 82.5° (Epoch: 22 July)

Date Brightness Start Highest point End Pass type
(mag) Time Alt. Az. Time Alt. Az. Time Alt. Az.
23 Jul 6.1 03:41:16 10° NE 03:42:32 11° ENE 03:43:48 10° E visible
24 Jul 6.2 03:31:01 10° NE 03:31:50 11° ENE 03:32:38 10° ENE visible
27 Jul 2.8 04:32:28 10° N 04:36:23 87° E 04:40:14 10° S visible
28 Jul 2.8 04:21:48 10° N 04:25:43 81° E 04:29:33 10° SSE visible
29 Jul 2.9 04:11:08 10° N 04:15:02 75° E 04:18:52 10° SSE visible
30 Jul 3.0 04:00:28 10° N 04:04:21 69° E 04:08:10 10° SSE visible
31 Jul 3.1 03:49:49 10° N 03:53:40 64° E 03:57:28 10° SSE visible
01 Aug 3.3 03:39:09 10° N 03:42:59 59° ENE 03:46:46 10° SSE visible
